GFSWCAN_925_rhum_291.txt.gz
RH
87 82 81 78 79 80 72 75 92 95 92 87 90 85 82 89 84 84 88 86 91 96 85 69 66 77 76 92 91 87 85 86 88 91 89 60 86 56 82 56 58 76 89 84 80 90 81 32 36 83 73 32 31 36
87 81 80 78 85 83 76 74 87 95 94 94 89 90 90 92 89 86 86 83 92 98 97 98 88 82 70 68 88 97 82 87 80 86 78 81 81 85 72 80 49 86 70 83 81 61 45 36 83 46 40 46 40 45
84 80 78 79 85 85 78 74 76 80 92 94 92 90 94 94 88 86 88 92 99 100 87 88 80 81 97 94 85 98 86 81 95 84 92 94 94 70 78 73 67 56 62 89 87 57 61 74 76 64 90 65 38 44
83 80 83 82 84 83 81 78 76 76 84 91 89 92 93 91 90 88 90 90 99 100 99 73 83 80 88 93 100 100 98 98 99 95 94 92 84 76 71 66 68 64 73 75 82 61 63 78 79 83 91 78 42 46
86 85 84 86 87 84 84 82 80 79 82 91 89 88 92 93 90 88 88 84 95 96 95 74 69 86 96 100 99 100 97 95 92 93 93 86 70 86 78 81 76 60 74 76 71 81 89 80 69 48 89 68 47 55
84 83 83 88 89 88 86 86 85 83 84 91 86 93 89 90 91 89 99 98 100 100 100 97 86 85 92 91 90 89 90 91 89 91 89 88 82 77 92 81 52 66 57 70 69 85 87 87 79 39 60 47 52 68
89 88 86 89 87 87 88 88 88 83 84 89 92 90 89 82 82 92 90 100 99 99 100 96 91 76 81 77 73 76 83 83 85 89 86 72 84 90 92 83 52 49 48 51 78 86 90 90 58 46 52 54 60 60
89 87 88 91 89 90 92 91 88 84 88 90 90 90 93 94 82 94 98 99 100 100 99 95 90 73 77 68 72 66 81 83 86 82 88 79 87 90 92 60 53 65 66 66 80 90 82 55 54 58 58 63 58 59
89 86 86 88 90 99 98 93 89 86 85 89 83 84 100 99 98 99 98 98 99 99 95 92 87 90 71 77 86 85 82 89 86 84 85 89 83 88 69 76 85 89 87 83 76 57 55 58 62 63 64 60 62 59
90 90 89 89 95 98 95 94 88 87 89 86 82 98 100 99 98 96 99 95 92 92 92 89 78 92 85 84 88 84 81 82 86 82 80 89 74 58 67 69 75 87 78 68 68 64 62 62 62 66 73 75 77 76
90 89 90 93 96 100 92 93 89 88 88 89 100 95 95 88 99 86 90 88 90 90 91 85 88 90 90 91 89 90 89 88 88 87 87 81 75 58 57 57 76 73 69 65 64 70 72 75 78 76 68 68 66 70
92 91 93 95 93 100 96 92 89 93 80 96 97 93 97 91 89 91 88 91 91 87 87 87 89 87 89 88 88 89 87 87 88 82 88 80 56 58 62 79 74 72 70 71 74 79 77 79 78 80 78 74 82 83
89 91 94 94 97 100 95 91 90 92 81 93 96 92 92 89 96 90 86 91 91 86 84 87 88 83 84 82 88 87 89 89 82 89 79 63 56 68 79 74 73 64 63 67 70 71 70 70 70 73 75 85 84 86
88 90 94 95 100 100 94 91 97 85 86 93 93 91 91 92 87 76 80 82 85 82 86 84 85 88 84 89 87 88 88 88 89 90 78 53 69 81 77 72 70 69 73 78 83 76 73 80 82 84 80 81 82 87
94 94 93 93 98 100 90 99 97 84 99 92 92 89 92 75 81 86 87 86 85 81 84 87 85 81 86 88 83 88 90 89 78 72 59 68 78 86 85 80 82 79 84 86 84 85 83 81 82 88 83 84 84 87
97 93 96 98 100 97 90 100 100 96 94 93 94 92 86 92 88 91 90 89 84 85 85 85 85 89 86 85 90 86 87 81 66 72 74 72 85 88 89 90 88 86 83 85 80 79 82 80 84 88 86 87 87 88
100 99 98 99 100 98 98 96 99 96 82 91 90 86 87 89 89 84 81 83 82 89 90 89 91 81 89 90 88 75 82 62 72 69 74 78 86 88 90 89 86 82 85 85 85 84 84 82 84 90 88 89 86 91
100 97 99 100 100 99 99 96 94 83 93 89 94 84 85 82 84 79 80 85 90 90 90 91 88 92 90 89 78 62 65 70 74 74 78 83 87 89 85 88 84 81 85 85 84 86 86 89 88 80 85 91 93 94
97 100 100 99 88 79 93 99 98 90 91 90 87 84 82 80 76 82 80 86 92 92 92 92 92 89 80 72 68 66 70 69 70 77 83 90 90 87 87 85 83 85 86 89 91 83 82 86 81 80 81 87 83 80
100 100 100 97 61 83 93 97 98 95 94 90 87 88 84 85 81 80 82 86 88 90 92 92 83 75 80 65 68 64 68 76 74 74 76 80 81 85 80 77 71 76 82 86 88 86 82 79 79 80 82 85 86 81
100 99 99 79 77 84 90 94 95 91 89 90 87 85 86 84 86 87 86 86 92 89 85 78 78 90 91 78 78 76 78 75 65 53 55 72 71 70 77 78 80 78 73 75 71 79 83 73 73 79 90 89 90 92
98 93 85 80 89 89 90 94 92 90 89 90 89 87 90 90 89 87 89 92 88 76 75 77 83 91 91 92 77 81 74 76 65 60 60 68 73 76 77 80 81 79 77 77 77 76 80 85 87 94 97 96 96 96
83 68 83 86 89 89 99 96 92 91 94 90 90 92 90 91 88 86 91 83 77 70 71 85 91 95 91 82 81 83 82 71 59 65 67 62 65 69 74 81 81 87 86 82 78 80 84 89 95 98 98 98 97 93
71 83 90 93 89 95 92 94 89 90 90 92 92 90 90 90 88 90 90 82 80 80 87 88 89 88 89 89 76 72 78 71 70 77 70 68 74 75 75 75 76 76 73 72 74 81 86 97 98 96 100 99 98 95
81 84 88 100 92 93 95 96 94 93 94 90 92 90 91 89 91 91 87 87 82 83 77 74 76 85 89 76 68 74 74 73 71 75 74 65 71 82 83 79 77 72 70 74 85 87 93 97 100 100 100 100 97 96
92 94 90 89 95 92 89 93 94 91 88 92 89 89 89 90 93 89 85 80 79 80 80 80 82 80 76 69 66 74 74 69 68 68 69 64 64 73 82 83 84 77 71 74 81 89 94 97 99 98 97 97 92 94
94 94 88 75 83 84 88 83 83 89 92 92 89 92 90 94 90 80 76 75 74 84 87 86 83 76 77 74 72 71 78 71 66 61 55 55 59 60 62 72 78 60 61 71 78 81 86 91 94 96 96 96 94 98
80 85 93 91 86 87 93 91 92 93 88 88 87 93 92 90 90 79 78 87 84 85 90 94 96 98 93 91 86 85 86 76 65 64 69 69 65 61 60 61 60 58 64 73 77 77 78 81 87 90 91 93 93 95
82 81 80 94 93 92 91 91 90 90 90 89 91 88 86 85 88 81 85 91 92 98 95 92 96 99 98 95 93 90 83 80 81 85 80 83 89 75 68 71 77 68 75 78 75 72 75 78 82 85 88 92 94 95
85 84 87 93 95 93 92 91 91 91 90 90 83 73 68 74 96 87 94 96 98 97 100 100 99 100 95 94 95 96 89 83 70 72 83 82 74 64 70 77 71 73 71 72 79 97 98 100 100 96 93 94 96 95
80 81 88 90 92 92 92 91 91 90 89 85 86 90 83 84 84 82 92 98 99 98 100 96 96 95 96 93 91 91 94 77 67 62 58 56 58 66 73 69 66 67 69 73 92 97 97 96 88 91 95 96 98 100
81 91 93 93 93 92 89 85 86 85 87 89 86 93 87 84 84 80 80 92 92 95 99 99 96 97 92 88 84 81 88 70 65 60 53 58 63 71 71 66 68 71 74 81 95 95 95 94 96 98 100 100 100 99
81 86 92 92 92 76 84 85 78 79 85 87 85 88 86 82 76 76 78 93 100 100 100 100 97 94 89 84 81 78 71 67 64 57 52 63 70 71 66 67 72 77 80 86 91 92 92 92 91 95 97 97 98 100

GFSWCAN_925_rhum_294.txt.gz
RH
93 93 92 90 91 82 81 76 84 79 74 91 99 99 94 82 76 80 87 79 86 97 93 70 66 79 90 93 96 92 91 96 95 97 95 93 94 81 90 74 89 88 94 94 89 96 92 34 35 82 88 76 36 49
94 91 94 89 88 80 81 75 86 79 73 79 94 98 86 92 79 79 95 79 83 95 86 80 86 88 83 80 88 90 86 91 97 96 96 90 95 87 81 90 58 93 84 91 87 70 50 44 91 82 83 95 51 60
92 91 91 86 84 81 78 84 89 81 81 76 77 90 92 90 78 86 97 92 94 100 86 86 85 70 75 91 93 98 95 89 96 94 97 96 96 93 89 91 77 64 81 96 91 66 71 72 81 88 90 95 50 55
93 91 88 88 84 81 87 88 88 82 81 75 80 86 92 89 92 91 93 89 90 100 98 76 74 75 80 85 96 99 98 100 99 99 98 97 96 95 96 85 86 88 92 91 92 78 75 83 88 91 93 95 54 49
94 91 88 83 83 85 88 88 87 85 86 84 85 80 88 91 91 90 89 81 91 91 95 78 62 86 87 94 99 99 99 98 98 98 97 95 90 94 96 96 97 81 83 90 91 96 97 92 94 87 89 94 83 64
92 88 86 84 87 86 88 89 86 88 85 89 84 88 89 93 91 84 94 98 100 100 100 98 85 88 87 89 94 96 96 97 98 97 97 98 90 93 96 96 79 86 87 83 96 96 96 94 92 58 73 78 66 75
88 86 86 87 89 88 88 90 89 90 88 88 85 91 89 92 86 85 97 99 100 98 99 97 98 87 79 76 79 83 90 97 97 97 97 89 94 94 96 94 74 77 82 78 90 93 96 94 89 60 66 69 64 71
89 86 86 90 90 88 88 92 95 95 92 87 85 85 93 98 99 94 96 99 100 100 100 97 97 89 77 83 87 82 95 97 96 96 96 96 96 96 96 79 95 95 92 90 94 94 95 73 59 70 69 65 69 74
91 90 90 91 90 85 87 92 96 100 93 89 82 82 88 94 99 100 98 98 99 100 98 98 98 97 85 90 88 93 90 98 96 97 95 96 91 95 87 96 96 97 94 94 81 60 60 70 73 74 74 72 78 76
91 88 88 89 90 90 88 90 100 99 92 88 85 92 99 96 97 94 98 100 98 99 98 97 95 96 90 94 97 97 95 98 98 97 93 98 87 72 73 86 95 95 86 82 80 72 75 76 78 85 90 92 88 89
88 86 88 89 90 92 92 96 100 98 91 87 94 88 99 86 92 84 94 98 98 98 99 96 96 97 97 97 97 97 97 97 99 98 99 94 94 77 59 66 81 86 83 84 80 86 85 80 86 88 90 90 79 77
92 91 90 92 94 93 94 100 100 97 82 89 90 96 98 87 95 97 96 97 99 94 99 97 98 97 98 97 99 98 97 96 97 90 98 94 78 68 75 91 89 88 83 88 81 88 90 85 79 84 88 89 85 84
97 92 92 92 94 94 100 100 100 92 88 86 92 93 94 92 97 98 97 98 98 98 97 98 98 98 98 97 98 98 97 97 92 99 90 84 71 80 92 89 84 76 75 78 82 77 75 78 74 75 90 85 83 85
100 98 93 92 94 94 100 100 100 93 74 92 84 84 97 94 97 92 93 96 97 96 97 97 98 98 97 98 96 100 97 97 98 99 89 88 87 94 91 89 85 88 86 87 92 82 84 86 92 85 85 83 82 87
100 100 96 93 94 96 100 100 94 81 90 92 88 89 96 89 93 92 95 96 92 96 96 98 97 95 98 97 96 95 98 95 89 87 90 93 92 95 94 92 92 92 93 95 88 89 88 82 85 91 88 84 82 87
100 100 100 98 91 98 100 99 96 87 95 90 92 95 96 97 97 98 93 93 93 97 98 97 96 98 96 97 98 93 97 91 86 92 96 93 96 96 96 96 96 90 85 88 79 82 84 85 84 82 89 86 86 88
100 100 96 96 98 100 100 93 98 98 94 91 90 80 98 95 98 98 95 98 92 97 98 97 98 90 97 98 98 86 93 90 95 94 95 90 92 93 95 93 89 84 86 85 88 81 82 84 86 86 95 85 85 89
100 99 94 93 100 100 99 98 95 94 94 93 99 97 96 93 93 96 86 97 98 98 97 96 96 98 95 96 92 89 92 95 94 94 96 96 96 94 87 90 83 79 85 82 80 84 83 83 90 90 88 87 89 89
97 98 99 100 96 87 96 97 96 92 86 97 98 97 96 96 94 96 97 95 97 97 97 98 97 96 91 90 93 93 94 93 94 96 97 92 93 90 90 80 80 84 83 87 87 83 78 79 85 81 84 86 86 83
99 100 100 100 83 90 95 100 99 98 94 98 97 98 97 96 96 95 96 97 96 97 99 97 94 91 96 95 93 93 94 95 94 96 96 97 90 87 86 84 81 80 82 86 85 85 82 82 79 77 81 84 88 87
100 100 99 91 85 78 94 98 99 99 99 98 97 96 98 97 98 98 98 97 97 97 98 93 91 94 98 96 92 86 95 93 92 87 86 93 80 80 82 73 73 77 80 83 85 91 81 75 72 75 78 91 95 96
99 96 92 69 86 86 95 96 99 98 98 99 98 98 99 100 99 98 97 97 97 94 93 95 96 98 97 97 97 93 77 75 76 65 59 68 79 87 86 85 82 85 78 77 74 79 84 82 81 86 89 92 95 93
92 84 85 78 89 88 99 96 97 97 100 99 99 100 99 100 98 97 100 96 94 93 87 93 96 96 96 95 91 79 76 78 78 72 72 71 70 69 76 81 76 85 91 82 76 77 81 88 92 94 94 96 92 92
60 80 92 97 92 98 96 99 97 98 98 99 100 98 96 99 98 100 99 94 93 95 97 95 97 98 97 98 97 91 74 77 71 74 70 72 86 81 74 73 73 78 74 69 74 79 81 93 97 98 95 95 96 96
76 77 89 100 97 97 98 100 99 99 100 98 97 97 99 98 99 99 96 93 97 97 95 93 93 93 96 97 90 80 76 73 86 92 72 66 72 80 81 74 72 73 73 72 84 85 88 95 100 97 97 97 97 98
93 93 93 94 98 94 94 96 95 94 96 96 96 97 98 98 99 94 94 97 96 96 96 96 96 93 93 88 91 95 78 73 69 77 70 66 61 74 88 93 95 81 71 70 73 84 92 95 97 98 95 98 93 94
95 96 95 83 95 94 96 94 94 96 96 96 97 97 96 99 95 91 96 96 96 90 83 84 89 89 81 86 81 80 82 77 69 62 60 62 65 65 59 73 83 55 56 68 76 74 82 91 94 94 95 96 95 94
94 95 96 96 95 97 96 96 96 96 96 96 94 96 95 92 95 98 96 89 85 88 92 91 96 96 96 92 91 91 90 83 70 68 74 71 66 62 61 59 56 55 59 68 75 77 77 77 83 90 92 91 94 95
92 94 92 97 97 96 96 96 96 96 95 96 97 97 96 97 97 96 86 87 90 96 100 98 97 98 97 95 91 96 90 84 84 90 88 95 96 69 67 66 72 64 73 89 82 71 70 74 80 85 86 88 91 92
92 95 94 96 98 96 96 95 96 96 94 94 94 91 89 94 93 84 86 91 96 100 99 100 99 100 99 97 96 93 91 89 74 74 88 90 75 60 67 79 76 78 78 70 76 95 97 98 100 99 92 92 93 92
88 94 95 96 97 96 96 95 96 95 96 97 96 98 95 96 86 77 80 92 96 98 100 98 95 98 98 95 95 95 94 79 70 66 64 61 63 65 74 76 73 73 69 68 86 92 96 95 85 90 94 94 95 99
94 96 97 96 97 96 96 96 96 96 96 97 96 98 96 95 92 96 80 88 89 96 100 100 100 97 98 96 94 90 100 86 74 70 60 60 68 73 76 72 72 69 70 80 92 93 88 85 86 90 93 96 97 98
93 95 97 97 97 92 95 94 91 90 94 95 95 96 96 95 78 90 80 84 96 100 100 100 98 97 96 93 88 84 78 74 70 69 59 68 72 78 74 70 70 71 73 85 95 94 95 93 94 95 96 97 97 99

GFSWCAN_925_rhum_297.txt.gz
RH
96 94 92 92 92 92 94 89 89 78 80 92 84 77 85 92 95 91 97 95 99 100 88 77 75 98 96 93 98 91 89 92 99 96 96 94 98 81 91 73 87 88 95 96 93 96 92 36 35 79 94 95 76 58
95 95 94 93 92 89 91 88 85 78 90 92 89 82 76 87 87 87 96 93 98 100 94 72 72 69 74 76 91 96 85 93 96 96 96 97 95 100 87 89 69 94 79 88 92 73 51 47 89 74 92 94 78 65
95 94 94 93 93 89 88 87 83 83 91 90 86 79 81 84 82 84 92 97 100 100 91 94 91 56 68 84 88 99 97 90 99 92 98 92 97 95 96 95 89 73 85 95 91 74 81 54 79 82 92 95 79 64
96 96 95 94 92 90 89 83 86 88 89 89 85 83 85 84 84 88 92 87 95 100 98 76 67 75 80 92 99 99 98 99 99 99 97 97 94 93 97 85 95 88 82 93 94 84 82 85 81 92 96 94 86 88
91 93 94 92 90 89 86 85 90 89 91 89 86 87 87 83 89 90 87 87 99 88 100 82 71 90 90 92 91 92 99 98 98 97 97 96 97 96 97 97 97 94 88 96 94 95 94 96 95 95 96 95 90 90
91 91 90 88 88 86 88 88 88 89 91 90 86 79 86 90 86 99 86 100 99 99 99 97 90 91 83 84 90 97 98 98 98 97 97 98 96 97 96 96 92 96 96 97 96 96 96 96 94 76 69 95 82 75
88 88 87 86 88 88 88 87 89 89 92 94 83 85 87 86 93 96 89 95 99 95 98 96 97 92 81 80 91 96 94 99 97 96 96 96 96 96 96 97 93 95 91 91 95 96 96 95 93 73 74 74 67 72
94 92 92 86 86 85 89 85 90 90 95 96 95 92 84 91 87 96 96 100 93 98 100 98 94 93 79 95 95 98 98 98 97 98 97 97 96 98 98 87 98 96 91 92 95 95 95 88 72 78 73 74 80 85
100 97 94 91 89 86 89 86 88 90 96 100 100 85 89 91 98 100 99 99 96 99 97 97 98 96 93 96 97 95 97 99 95 98 98 95 95 97 82 95 96 96 93 95 74 63 68 77 81 78 73 79 86 86
100 100 96 93 90 88 88 90 93 91 98 100 86 88 97 99 99 96 99 99 96 96 98 98 98 96 94 98 97 97 98 99 97 96 95 100 93 80 86 87 95 97 90 82 81 78 85 86 88 91 87 91 86 90
100 100 100 97 89 88 88 90 91 93 100 87 95 98 100 90 92 90 97 97 96 98 100 98 97 98 96 96 97 96 97 97 100 93 95 96 96 85 68 94 91 91 86 88 86 88 83 81 90 96 95 94 83 80
100 100 100 98 91 89 88 94 94 100 90 74 88 95 96 95 97 95 98 96 98 95 98 98 96 96 97 98 98 96 98 95 98 92 97 97 78 71 84 95 94 89 85 89 85 92 90 81 79 86 92 92 84 81
94 100 100 98 93 90 92 93 97 100 84 84 84 92 96 94 97 97 100 97 98 96 100 99 96 97 96 97 97 97 97 96 93 99 93 84 76 81 95 94 91 80 79 82 88 84 82 85 78 79 91 85 84 83
94 100 99 98 94 91 96 98 100 100 82 92 94 97 95 99 95 92 94 96 95 98 100 99 99 97 98 97 96 97 93 95 98 100 90 91 87 94 95 91 86 93 86 87 90 84 85 88 94 88 83 81 79 87
96 98 99 99 94 94 99 100 100 91 77 95 95 95 97 90 97 98 100 97 97 96 97 98 97 95 98 97 97 95 95 96 89 84 88 93 92 94 94 93 90 90 92 96 90 91 91 86 88 95 90 85 79 80
95 100 100 98 96 99 100 100 100 96 92 94 96 99 96 96 99 97 95 92 97 100 98 96 98 99 98 96 98 94 97 92 83 89 95 94 96 95 95 95 92 89 86 90 84 83 84 82 83 82 86 87 86 86
95 100 97 98 98 100 100 98 99 98 94 100 98 95 99 92 82 96 96 98 96 96 100 98 99 90 94 100 100 90 93 85 93 94 96 95 93 92 95 92 91 86 86 83 85 83 82 86 84 86 94 82 87 89
100 99 97 99 100 99 99 99 97 96 100 96 96 96 99 97 96 94 96 98 97 98 97 95 95 98 95 97 91 85 90 96 96 95 96 97 97 96 90 91 85 79 81 82 78 79 83 89 93 89 86 88 88 95
98 98 99 100 99 96 97 97 94 96 94 96 96 95 95 98 98 98 99 100 97 97 97 97 99 98 93 93 93 95 95 91 88 94 97 97 96 92 88 82 79 81 82 83 86 82 76 78 78 82 83 91 91 87
95 100 100 100 97 95 94 97 94 95 100 97 98 100 100 99 99 99 98 97 96 97 98 98 96 93 95 97 96 96 90 94 88 88 92 95 94 92 88 83 80 79 80 83 80 82 85 87 84 81 83 85 89 85
100 100 100 91 95 77 94 98 98 100 100 99 99 98 99 98 100 100 99 97 96 99 100 94 95 94 98 97 96 96 95 94 92 75 80 93 87 88 87 80 76 80 84 88 90 92 87 81 70 72 77 89 90 94
98 97 96 96 93 83 93 97 97 98 98 99 99 99 100 100 100 100 97 97 97 93 94 95 97 97 96 96 96 96 95 95 85 79 67 72 88 94 91 86 86 85 83 82 81 82 82 81 74 77 80 88 98 93
88 85 91 78 89 88 95 95 95 100 98 99 99 100 100 100 99 96 100 96 93 94 92 93 96 95 97 92 95 95 95 95 83 81 77 80 74 74 79 83 78 83 87 76 68 70 72 82 85 90 92 98 91 90
69 86 93 95 92 100 96 100 99 100 99 100 100 100 97 100 98 99 100 94 92 96 96 96 90 89 93 96 96 94 95 96 86 77 76 79 93 86 76 78 74 67 62 60 72 76 76 84 97 99 95 95 94 95
71 83 88 100 98 96 100 100 100 100 98 100 100 98 98 98 100 100 98 91 96 96 90 86 86 92 95 94 96 90 79 82 92 93 77 70 75 84 86 77 72 70 74 74 81 79 81 87 99 100 98 96 95 96
91 92 80 100 99 93 95 97 96 94 96 99 97 98 99 98 100 93 90 96 95 95 95 91 91 84 80 89 94 89 90 84 79 81 71 71 66 76 87 91 94 81 76 71 65 78 85 94 100 99 96 98 95 94
96 93 95 88 96 94 96 95 94 96 97 97 97 97 96 97 93 86 95 92 92 89 88 93 98 96 91 85 87 90 90 88 79 70 63 67 65 59 54 72 86 54 53 63 68 70 78 90 95 95 95 97 96 91
94 99 95 96 97 97 96 96 96 96 94 96 93 96 95 93 94 95 93 91 86 91 94 92 93 100 100 100 96 93 92 88 74 74 79 76 71 69 67 65 59 52 52 59 69 75 77 78 85 90 92 92 93 96
92 97 91 98 99 98 96 95 96 96 94 95 96 95 95 94 95 92 85 89 90 90 96 100 92 96 95 96 93 89 96 92 81 88 85 92 88 69 67 64 67 59 64 83 84 76 71 73 78 83 86 88 92 93
90 94 94 97 97 96 96 95 95 95 94 94 94 94 94 94 94 78 81 90 97 100 100 99 100 100 100 100 97 90 92 92 91 86 92 90 77 62 64 72 73 77 83 76 80 96 98 98 99 93 90 92 94 94
90 95 96 97 98 96 96 96 96 95 94 95 95 95 94 94 91 78 79 85 91 98 98 98 93 100 99 100 100 100 95 88 84 75 70 68 71 68 71 78 76 80 71 72 89 90 95 92 83 87 93 94 96 96
96 97 98 97 97 98 97 96 94 94 92 88 90 95 93 93 89 94 81 84 90 94 100 100 100 98 98 99 100 100 100 96 85 74 74 64 75 78 83 81 80 73 71 82 89 85 77 79 82 87 89 93 95 97
93 96 98 98 96 95 96 96 94 87 90 92 92 92 96 93 76 87 81 84 94 99 100 100 98 98 96 96 94 87 82 76 75 83 81 82 80 84 83 80 76 72 76 88 94 91 89 88 91 94 97 99 99 99

GFSWCAN_925_rhum_300.txt.gz
RH
92 94 93 90 92 94 93 93 91 93 90 82 83 90 93 84 80 87 96 100 100 100 94 78 76 89 99 98 94 86 94 91 97 96 97 94 99 93 93 74 82 84 93 98 97 98 91 38 38 71 87 94 89 64
96 95 95 94 93 93 93 93 91 90 91 85 87 91 92 88 78 85 99 91 97 100 92 81 81 74 71 71 85 98 89 94 95 97 97 97 96 100 89 90 67 91 75 84 84 76 52 50 76 85 94 95 89 71
95 94 94 95 95 95 95 96 94 94 86 88 88 91 85 82 86 88 95 92 98 100 90 95 91 64 67 77 79 98 99 82 99 93 98 96 96 96 95 95 90 81 86 90 91 76 77 54 83 92 96 95 82 70
92 92 92 91 89 84 94 95 94 94 86 89 87 88 77 86 86 88 92 88 96 100 98 87 65 74 79 84 97 99 96 100 99 99 97 95 95 93 96 84 90 81 91 95 95 83 89 94 95 96 96 95 82 76
86 87 86 88 87 85 86 88 92 89 87 93 89 84 76 79 87 89 93 94 98 96 98 90 72 88 87 87 89 92 98 98 98 97 97 96 92 96 97 96 97 97 96 96 95 96 97 96 95 92 97 97 92 93
91 92 92 92 91 87 85 88 86 87 89 86 76 91 76 79 91 98 99 99 99 100 98 99 85 91 78 82 87 96 99 98 97 97 96 96 96 97 96 97 94 96 96 96 96 97 98 96 95 84 90 95 95 90
96 95 94 92 91 91 90 91 89 87 84 90 93 83 98 100 99 96 88 85 98 94 94 94 95 93 82 85 93 96 98 99 98 97 97 97 96 96 96 96 95 96 90 91 96 96 95 94 95 87 88 85 74 75
98 99 98 98 97 91 95 92 89 79 82 92 93 95 100 100 98 98 100 100 100 98 99 99 94 92 81 96 95 99 98 98 95 98 96 97 93 97 99 81 96 97 88 91 95 97 96 86 77 81 76 74 80 86
96 99 99 99 99 96 92 92 89 76 90 95 98 98 100 99 99 100 99 98 99 99 97 97 98 94 93 98 98 95 97 97 92 98 99 95 93 98 82 85 96 94 92 91 67 69 74 82 82 77 77 85 90 92
82 86 99 100 100 99 92 93 89 88 84 98 99 96 100 99 100 97 99 99 97 98 97 98 97 96 94 98 96 97 97 98 95 94 96 99 92 81 86 87 95 96 94 81 82 83 90 91 93 92 85 90 89 93
85 85 92 99 100 100 94 91 88 90 98 99 99 98 99 98 97 97 97 96 96 97 100 98 97 97 96 96 97 96 97 97 98 89 94 96 96 87 69 96 93 94 89 87 84 85 85 84 92 96 96 91 81 82
97 93 96 96 100 99 95 89 90 97 99 97 95 98 98 97 96 95 96 95 97 94 98 99 96 96 97 97 97 95 97 95 97 94 97 97 75 70 80 94 95 93 92 93 89 94 91 83 82 88 95 93 84 79
96 99 98 94 99 98 95 91 94 99 99 98 96 96 94 93 96 97 99 96 99 95 99 99 96 97 96 95 97 96 96 95 92 98 92 83 76 74 96 96 91 81 84 90 95 88 80 85 80 79 89 85 86 89
94 96 98 95 99 99 95 93 100 100 98 97 95 97 92 95 96 90 90 96 95 97 100 99 99 96 98 97 98 97 91 94 98 100 89 88 88 88 95 93 90 93 91 93 97 89 87 86 92 85 80 81 81 82
89 94 97 96 100 99 93 98 100 98 95 96 93 96 98 89 96 96 97 96 96 97 97 98 97 95 99 97 97 94 94 97 87 82 83 94 89 94 96 94 90 90 96 97 96 93 92 91 88 95 89 83 81 79
93 98 99 97 100 98 99 100 99 99 98 94 97 98 97 97 97 98 96 96 97 98 97 95 100 98 99 97 98 95 96 92 81 89 93 95 95 96 94 93 90 87 87 90 86 84 85 85 86 84 88 83 79 80
93 100 93 99 100 100 100 98 98 98 96 97 99 96 92 95 92 98 93 96 96 96 100 99 100 91 94 100 100 89 91 83 90 94 96 95 90 90 93 93 90 86 89 85 85 83 80 83 80 89 94 79 79 81
100 93 99 100 100 99 99 99 94 96 96 98 96 96 94 97 98 98 94 96 97 98 98 97 93 99 96 97 91 84 90 91 93 93 92 96 96 98 91 91 88 81 81 79 77 79 85 89 89 86 79 86 82 83
95 99 100 99 90 91 97 97 94 95 96 98 98 99 93 93 98 98 99 99 96 96 97 97 99 98 93 92 95 96 94 90 81 88 93 94 96 96 93 85 83 82 79 81 83 81 76 72 71 74 79 86 87 86
100 100 100 100 81 92 95 96 89 92 99 97 97 100 99 98 98 98 97 96 96 97 97 98 96 93 93 96 97 96 96 94 88 86 82 89 90 94 89 87 82 77 78 81 78 81 79 80 76 83 87 87 92 88
98 100 100 96 95 81 94 98 96 98 100 98 100 98 100 97 100 99 99 95 96 97 100 94 95 92 96 97 97 96 96 95 94 95 90 81 81 89 89 82 76 78 82 87 88 89 87 84 72 74 78 86 89 90
99 98 97 96 85 84 93 96 97 97 96 100 99 98 100 100 100 100 97 97 97 93 95 95 96 97 96 95 96 93 94 96 96 95 90 90 88 95 95 90 89 87 86 84 84 82 81 85 79 73 74 76 98 96
88 82 85 78 85 85 97 92 93 99 98 98 99 100 100 100 99 95 100 96 94 93 92 93 96 94 95 83 90 91 91 96 94 94 92 78 78 76 81 85 82 86 89 81 70 69 69 72 82 84 81 97 96 95
65 81 90 92 92 98 95 100 99 100 99 100 100 100 97 100 97 99 98 93 90 94 96 92 83 78 73 85 93 90 95 96 96 95 90 86 94 88 80 79 77 74 68 62 63 68 69 76 94 99 93 98 96 93
68 74 88 100 99 95 100 100 100 98 97 100 100 98 99 97 97 99 95 92 96 96 95 88 86 78 80 75 78 91 91 95 95 96 80 84 82 85 88 82 77 70 67 68 76 76 78 80 92 99 97 97 96 96
85 92 78 100 98 91 97 96 97 94 96 97 96 96 97 97 98 93 91 96 96 96 94 90 90 89 83 80 93 87 95 91 99 93 75 75 73 77 93 94 96 82 72 70 70 76 81 85 93 100 99 98 94 95
92 93 96 95 97 94 96 94 94 95 95 95 95 96 96 97 94 90 94 93 90 91 93 97 99 97 93 92 94 92 86 94 97 88 74 68 74 69 63 75 86 54 52 63 70 64 69 82 92 96 96 96 96 95
94 99 94 96 98 98 96 97 96 95 94 95 94 95 95 94 95 94 94 94 89 92 92 90 92 100 100 98 97 94 90 94 84 85 86 80 75 70 66 65 61 55 52 56 63 67 70 74 84 91 93 92 94 94
87 97 92 95 99 99 97 95 96 95 94 95 95 94 95 93 94 94 89 86 92 95 96 99 92 96 92 96 96 89 93 95 84 87 86 92 92 65 65 67 69 59 58 69 81 75 75 75 79 83 85 88 92 92
86 95 95 97 97 96 96 95 96 95 94 94 94 94 95 93 96 79 78 83 94 100 100 100 100 100 100 100 99 93 95 94 95 86 95 92 86 75 66 69 74 70 78 81 78 94 97 98 100 92 90 92 93 93
96 96 95 97 98 98 96 95 96 95 95 95 95 95 95 95 94 78 80 84 93 98 99 99 95 96 99 100 100 100 100 98 95 89 81 78 74 77 75 82 78 83 79 74 89 90 95 89 83 88 92 92 94 98
94 96 96 97 96 97 96 93 91 92 95 95 94 94 90 91 88 96 83 83 88 94 100 100 100 100 100 100 100 100 100 99 95 90 80 73 70 79 86 88 91 86 78 88 90 82 79 76 80 84 87 92 94 98
93 97 98 99 98 96 97 97 97 88 92 94 94 95 95 91 76 89 85 84 90 97 99 100 98 97 97 100 100 99 100 93 83 91 100 96 80 88 94 93 91 80 82 90 89 79 77 77 80 85 90 95 99 100